QPF
0.01 0.01 0.01 0.01 0.02 0.03 0.03 0.03 0.03 0.02 0.01 0.01 0.02 0.03 0.04 0.06 0.10 0.13 0.14 0.17 0.15 0.10 0.05 0.03 0.03 0.02 0.02 0.03 0.05 0.05 0.06 0.06 0.05 0.03 0.02 0.01 0.01 0.01
0.01 0.01 0.01 0.01 0.02 0.02 0.03 0.04 0.04 0.03 0.02 0.01 0.01 0.02 0.04 0.05 0.06 0.08 0.11 0.17 0.18 0.14 0.08 0.04 0.03 0.03 0.02 0.02 0.02 0.03 0.02 0.03 0.03 0.03 0.02 0.01 0.01 0.01
0.02 0.02 0.01 0.02 0.03 0.02 0.03 0.04 0.05 0.04 0.02 0.01 0.01 0.02 0.03 0.04 0.06 0.07 0.08 0.12 0.15 0.15 0.12 0.07 0.04 0.03 0.02 0.02 0.01 0.01 0.01 0.01 0.01 0.02 0.02 0.01 0.01 0.01
0.02 0.02 0.03 0.03 0.02 0.03 0.03 0.04 0.05 0.07 0.05 0.03 0.02 0.03 0.03 0.03 0.06 0.08 0.08 0.08 0.11 0.15 0.15 0.12 0.08 0.05 0.04 0.03 0.03 0.01 0.01 0.01 0.01 0.01 0.01 0.01 0.01 0.01
0.02 0.02 0.03 0.02 0.02 0.02 0.02 0.02 0.03 0.05 0.05 0.05 0.03 0.03 0.03 0.05 0.06 0.07 0.10 0.11 0.10 0.13 0.15 0.13 0.10 0.08 0.07 0.06 0.05 0.04 0.02 0.01 0.01 0.01 0.01 0.01 0.01 0.01
0.02 0.05 0.06 0.04 0.03 0.03 0.02 0.02 0.03 0.03 0.04 0.04 0.04 0.05 0.05 0.06 0.07 0.05 0.05 0.08 0.10 0.11 0.13 0.13 0.12 0.12 0.10 0.08 0.07 0.06 0.04 0.03 0.02 0.02 0.02 0.01 0.01 0.01
0.03 0.05 0.04 0.03 0.03 0.03 0.02 0.02 0.02 0.03 0.04 0.04 0.05 0.05 0.05 0.05 0.04 0.05 0.05 0.07 0.09 0.11 0.13 0.14 0.14 0.13 0.11 0.10 0.08 0.06 0.05 0.04 0.03 0.03 0.02 0.02 0.01 0.01
0.03 0.04 0.04 0.03 0.04 0.04 0.03 0.03 0.02 0.02 0.03 0.03 0.03 0.04 0.04 0.05 0.06 0.08 0.08 0.08 0.06 0.07 0.08 0.10 0.13 0.13 0.11 0.09 0.09 0.09 0.07 0.07 0.06 0.04 0.03 0.03 0.02 0.02
0.03 0.03 0.02 0.02 0.02 0.02 0.02 0.03 0.03 0.02 0.02 0.02 0.02 0.03 0.04 0.05 0.07 0.07 0.09 0.09 0.07 0.09 0.11 0.09 0.10 0.12 0.14 0.14 0.17 0.17 0.15 0.12 0.10 0.08 0.06 0.05 0.04 0.02
0.02 0.02 0.02 0.02 0.01 0.01 0.01 0.02 0.03 0.03 0.03 0.03 0.02 0.03 0.04 0.06 0.07 0.06 0.08 0.10 0.10 0.13 0.15 0.13 0.11 0.12 0.14 0.17 0.21 0.21 0.20 0.19 0.17 0.14 0.11 0.08 0.06 0.04
0.01 0.01 0.01 0.01 0.01 0.01 0.01 0.01 0.02 0.03 0.04 0.03 0.03 0.04 0.04 0.05 0.07 0.08 0.07 0.08 0.08 0.09 0.13 0.14 0.12 0.13 0.14 0.16 0.20 0.25 0.26 0.25 0.23 0.20 0.16 0.12 0.09 0.07
0.00 0.00 0.00 0.01 0.02 0.01 0.02 0.02 0.02 0.03 0.02 0.02 0.03 0.04 0.04 0.05 0.06 0.07 0.08 0.08 0.07 0.08 0.10 0.11 0.12 0.16 0.18 0.19 0.19 0.22 0.26 0.28 0.28 0.26 0.22 0.18 0.16 0.12
0.00 0.00 0.00 0.01 0.01 0.02 0.04 0.03 0.02 0.03 0.02 0.02 0.02 0.03 0.04 0.04 0.05 0.06 0.06 0.08 0.07 0.07 0.08 0.10 0.11 0.13 0.16 0.18 0.20 0.22 0.24 0.28 0.29 0.28 0.28 0.25 0.21 0.16
0.00 0.00 0.00 0.00 0.00 0.01 0.02 0.04 0.03 0.03 0.03 0.02 0.02 0.02 0.03 0.05 0.06 0.08 0.08 0.08 0.08 0.08 0.08 0.10 0.10 0.10 0.11 0.13 0.16 0.22 0.25 0.25 0.25 0.25 0.25 0.27 0.25 0.19
0.00 0.00 0.00 0.00 0.00 0.00 0.00 0.01 0.03 0.04 0.02 0.02 0.02 0.03 0.03 0.05 0.06 0.08 0.10 0.10 0.09 0.09 0.08 0.08 0.08 0.10 0.12 0.11 0.12 0.15 0.21 0.24 0.22 0.22 0.23 0.22 0.20 0.19
0.00 0.00 0.00 0.00 0.00 0.00 0.00 0.01 0.02 0.03 0.02 0.02 0.02 0.02 0.03 0.04 0.05 0.06 0.08 0.08 0.09 0.09 0.10 0.10 0.11 0.12 0.14 0.14 0.14 0.16 0.16 0.19 0.22 0.22 0.20 0.19 0.17 0.14
0.00 0.00 0.00 0.00 0.00 0.00 0.00 0.00 0.00 0.01 0.01 0.01 0.01 0.01 0.01 0.02 0.03 0.06 0.10 0.09 0.08 0.09 0.11 0.13 0.15 0.16 0.16 0.18 0.20 0.18 0.18 0.18 0.19 0.22 0.23 0.21 0.17 0.14
0.00 0.00 0.00 0.00 0.00 0.00 0.00 0.00 0.00 0.00 0.00 0.01 0.01 0.01 0.01 0.01 0.02 0.06 0.11 0.13 0.10 0.09 0.09 0.12 0.17 0.22 0.24 0.25 0.24 0.22 0.22 0.21 0.20 0.20 0.20 0.19 0.16 0.12
0.00 0.00 0.00 0.00 0.00 0.00 0.00 0.00 0.00 0.00 0.00 0.01 0.01 0.01 0.01 0.01 0.02 0.03 0.06 0.11 0.15 0.15 0.14 0.14 0.15 0.17 0.19 0.21 0.19 0.19 0.21 0.22 0.25 0.25 0.21 0.17 0.14 0.12
0.00 0.00 0.00 0.00 0.00 0.00 0.00 0.00 0.00 0.00 0.00 0.01 0.01 0.01 0.01 0.02 0.02 0.03 0.05 0.07 0.11 0.14 0.16 0.17 0.18 0.17 0.17 0.17 0.16 0.15 0.17 0.19 0.20 0.21 0.20 0.17 0.15 0.16
0.00 0.00 0.00 0.00 0.00 0.00 0.00 0.00 0.00 0.00 0.01 0.01 0.01 0.01 0.02 0.02 0.02 0.03 0.05 0.08 0.09 0.09 0.11 0.14 0.18 0.21 0.20 0.19 0.17 0.15 0.15 0.17 0.17 0.16 0.15 0.15 0.15 0.13
0.00 0.00 0.00 0.00 0.00 0.00 0.00 0.00 0.00 0.01 0.01 0.01 0.02 0.02 0.02 0.03 0.04 0.03 0.04 0.06 0.07 0.07 0.08 0.10 0.14 0.18 0.18 0.16 0.14 0.12 0.12 0.14 0.15 0.15 0.14 0.12 0.09 0.08
0.01 0.01 0.01 0.01 0.01 0.00 0.01 0.01 0.01 0.01 0.01 0.01 0.02 0.02 0.03 0.03 0.04 0.05 0.05 0.06 0.06 0.06 0.07 0.08 0.10 0.12 0.14 0.14 0.13 0.11 0.10 0.09 0.09 0.09 0.08 0.09 0.08 0.07
MSLP
1012.48 1012.33 1012.18 1012.04 1011.89 1011.73 1011.55 1011.36 1011.14 1010.92 1010.69 1010.46 1010.25 1010.06 1009.90 1009.79 1009.73 1009.74 1009.83 1010.00 1010.26 1010.59 1010.99 1011.44 1011.91 1012.39 1012.86 1013.31 1013.74 1014.16 1014.56 1014.96 1015.35 1015.75 1016.14 1016.52 1016.90 1017.26
1012.22 1012.02 1011.83 1011.65 1011.47 1011.30 1011.12 1010.94 1010.76 1010.58 1010.40 1010.21 1010.02 1009.84 1009.68 1009.54 1009.44 1009.39 1009.42 1009.53 1009.73 1010.02 1010.39 1010.81 1011.27 1011.76 1012.24 1012.71 1013.17 1013.61 1014.04 1014.46 1014.89 1015.32 1015.75 1016.18 1016.60 1017.00
1011.95 1011.72 1011.49 1011.28 1011.09 1010.91 1010.75 1010.61 1010.47 1010.34 1010.20 1010.06 1009.90 1009.74 1009.57 1009.41 1009.27 1009.18 1009.14 1009.19 1009.33 1009.57 1009.89 1010.27 1010.71 1011.18 1011.65 1012.12 1012.58 1013.04 1013.48 1013.93 1014.39 1014.86 1015.33 1015.80 1016.27 1016.73
1011.69 1011.44 1011.20 1010.98 1010.78 1010.62 1010.48 1010.36 1010.26 1010.17 1010.08 1009.97 1009.84 1009.69 1009.52 1009.34 1009.17 1009.03 1008.95 1008.94 1009.03 1009.21 1009.48 1009.83 1010.23 1010.66 1011.12 1011.57 1012.02 1012.47 1012.93 1013.39 1013.86 1014.36 1014.87 1015.39 1015.92 1016.42
1011.46 1011.20 1010.96 1010.74 1010.55 1010.40 1010.27 1010.17 1010.09 1010.02 1009.95 1009.86 1009.74 1009.59 1009.41 1009.22 1009.03 1008.86 1008.75 1008.71 1008.76 1008.91 1009.14 1009.45 1009.82 1010.22 1010.64 1011.07 1011.50 1011.93 1012.37 1012.83 1013.32 1013.83 1014.38 1014.94 1015.51 1016.07
1011.25 1011.00 1010.77 1010.56 1010.37 1010.22 1010.09 1009.98 1009.89 1009.81 1009.73 1009.62 1009.49 1009.33 1009.14 1008.94 1008.74 1008.57 1008.45 1008.41 1008.45 1008.58 1008.80 1009.09 1009.43 1009.81 1010.20 1010.60 1011.00 1011.40 1011.82 1012.27 1012.75 1013.27 1013.83 1014.42 1015.03 1015.64
1011.04 1010.81 1010.59 1010.38 1010.19 1010.02 1009.86 1009.72 1009.58 1009.46 1009.32 1009.18 1009.01 1008.82 1008.62 1008.42 1008.23 1008.08 1007.98 1007.96 1008.03 1008.18 1008.40 1008.70 1009.03 1009.39 1009.76 1010.13 1010.50 1010.87 1011.27 1011.69 1012.16 1012.67 1013.24 1013.85 1014.48 1015.13
1010.83 1010.62 1010.40 1010.19 1009.98 1009.76 1009.55 1009.34 1009.14 1008.93 1008.72 1008.50 1008.29 1008.06 1007.85 1007.65 1007.49 1007.37 1007.32 1007.35 1007.47 1007.66 1007.92 1008.23 1008.57 1008.93 1009.28 1009.63 1009.98 1010.32 1010.68 1011.08 1011.53 1012.03 1012.59 1013.21 1013.87 1014.54
1010.60 1010.40 1010.19 1009.96 1009.71 1009.45 1009.17 1008.87 1008.57 1008.26 1007.96 1007.67 1007.39 1007.13 1006.90 1006.71 1006.58 1006.52 1006.53 1006.62 1006.80 1007.05 1007.35 1007.69 1008.05 1008.41 1008.75 1009.08 1009.40 1009.72 1010.06 1010.43 1010.86 1011.35 1011.91 1012.53 1013.20 1013.90
1010.35 1010.17 1009.95 1009.71 1009.42 1009.10 1008.74 1008.36 1007.96 1007.55 1007.16 1006.79 1006.45 1006.16 1005.92 1005.76 1005.66 1005.65 1005.72 1005.87 1006.11 1006.40 1006.74 1007.10 1007.47 1007.83 1008.16 1008.48 1008.78 1009.07 1009.39 1009.74 1010.15 1010.63 1011.18 1011.81 1012.50 1013.23
1010.09 1009.92 1009.72 1009.46 1009.15 1008.78 1008.36 1007.90 1007.41 1006.93 1006.46 1006.03 1005.65 1005.34 1005.10 1004.95 1004.89 1004.92 1005.03 1005.23 1005.50 1005.81 1006.16 1006.53 1006.88 1007.22 1007.54 1007.82 1008.10 1008.37 1008.67 1009.01 1009.41 1009.89 1010.45 1011.09 1011.79 1012.55
1009.82 1009.68 1009.50 1009.25 1008.92 1008.53 1008.07 1007.56 1007.02 1006.49 1005.98 1005.51 1005.11 1004.79 1004.57 1004.43 1004.39 1004.45 1004.58 1004.79 1005.06 1005.36 1005.69 1006.02 1006.33 1006.63 1006.90 1007.15 1007.40 1007.65 1007.93 1008.26 1008.66 1009.14 1009.71 1010.36 1011.10 1011.88
1009.53 1009.45 1009.30 1009.07 1008.76 1008.36 1007.90 1007.38 1006.83 1006.28 1005.75 1005.29 1004.89 1004.58 1004.37 1004.25 1004.22 1004.28 1004.41 1004.60 1004.83 1005.08 1005.35 1005.61 1005.86 1006.09 1006.30 1006.50 1006.70 1006.92 1007.18 1007.50 1007.90 1008.39 1008.97 1009.65 1010.41 1011.23
1009.23 1009.20 1009.10 1008.91 1008.64 1008.27 1007.82 1007.32 1006.78 1006.26 1005.76 1005.31 1004.94 1004.66 1004.47 1004.36 1004.34 1004.38 1004.48 1004.62 1004.78 1004.96 1005.14 1005.31 1005.47 1005.61 1005.74 1005.88 1006.03 1006.21 1006.45 1006.75 1007.15 1007.65 1008.25 1008.95 1009.74 1010.58
1008.90 1008.93 1008.88 1008.74 1008.51 1008.18 1007.77 1007.31 1006.82 1006.33 1005.88 1005.48 1005.15 1004.90 1004.73 1004.63 1004.60 1004.62 1004.68 1004.76 1004.85 1004.94 1005.02 1005.10 1005.15 1005.20 1005.26 1005.32 1005.41 1005.55 1005.76 1006.05 1006.44 1006.94 1007.55 1008.27 1009.07 1009.93
1008.55 1008.62 1008.62 1008.52 1008.33 1008.04 1007.68 1007.26 1006.82 1006.38 1005.98 1005.63 1005.34 1005.13 1004.99 1004.90 1004.87 1004.87 1004.88 1004.90 1004.92 1004.93 1004.93 1004.91 1004.88 1004.85 1004.82 1004.82 1004.86 1004.97 1005.14 1005.42 1005.79 1006.29 1006.89 1007.60 1008.41 1009.27
1008.20 1008.30 1008.32 1008.25 1008.08 1007.82 1007.48 1007.11 1006.71 1006.32 1005.96 1005.65 1005.40 1005.22 1005.10 1005.03 1004.99 1004.97 1004.95 1004.93 1004.90 1004.85 1004.78 1004.70 1004.61 1004.52 1004.44 1004.40 1004.40 1004.47 1004.62 1004.87 1005.22 1005.69 1006.28 1006.98 1007.76 1008.61
1007.92 1008.02 1008.03 1007.95 1007.78 1007.53 1007.21 1006.85 1006.47 1006.10 1005.77 1005.49 1005.27 1005.11 1005.00 1004.93 1004.89 1004.85 1004.82 1004.78 1004.72 1004.64 1004.54 1004.43 1004.32 1004.21 1004.11 1004.05 1004.04 1004.08 1004.21 1004.43 1004.76 1005.20 1005.75 1006.41 1007.16 1007.98
1007.79 1007.84 1007.82 1007.72 1007.53 1007.25 1006.92 1006.55 1006.18 1005.81 1005.49 1005.21 1004.99 1004.83 1004.72 1004.64 1004.59 1004.55 1004.51 1004.46 1004.39 1004.31 1004.22 1004.11 1004.01 1003.91 1003.82 1003.77 1003.76 1003.80 1003.92 1004.12 1004.42 1004.82 1005.33 1005.94 1006.63 1007.40
1007.86 1007.86 1007.79 1007.64 1007.40 1007.09 1006.73 1006.34 1005.95 1005.57 1005.23 1004.93 1004.70 1004.51 1004.38 1004.28 1004.20 1004.14 1004.09 1004.03 1003.97 1003.90 1003.82 1003.75 1003.68 1003.61 1003.57 1003.54 1003.56 1003.62 1003.74 1003.93 1004.20 1004.56 1005.02 1005.57 1006.20 1006.90
1008.18 1008.12 1007.99 1007.78 1007.50 1007.15 1006.75 1006.33 1005.91 1005.50 1005.13 1004.80 1004.53 1004.30 1004.12 1003.97 1003.85 1003.75 1003.67 1003.59 1003.52 1003.46 1003.40 1003.36 1003.33 1003.32 1003.32 1003.35 1003.40 1003.50 1003.63 1003.83 1004.09 1004.42 1004.83 1005.32 1005.88 1006.51
1008.73 1008.61 1008.43 1008.17 1007.85 1007.46 1007.04 1006.59 1006.15 1005.71 1005.30 1004.93 1004.60 1004.31 1004.06 1003.84 1003.66 1003.49 1003.34 1003.22 1003.12 1003.04 1002.99 1002.96 1002.97 1003.00 1003.06 1003.14 1003.25 1003.39 1003.56 1003.77 1004.03 1004.35 1004.72 1005.16 1005.66 1006.21
1009.42 1009.25 1009.03 1008.74 1008.40 1008.00 1007.56 1007.11 1006.64 1006.19 1005.75 1005.33 1004.94 1004.58 1004.25 1003.94 1003.65 1003.39 1003.16 1002.95 1002.79 1002.66 1002.58 1002.55 1002.57 1002.63 1002.73 1002.87 1003.03 1003.22 1003.44 1003.69 1003.97 1004.29 1004.65 1005.05 1005.50 1005.99
Thickness
5660 5662 5663 5666 5669 5672 5674 5676 5676 5678 5685 5695 5702 5711 5716 5720 5724 5727 5730 5733 5734 5734 5735 5735 5735 5735 5735 5735 5734 5733 5732 5731 5729 5727 5725 5723 5721 5719
5655 5656 5657 5660 5663 5665 5668 5671 5673 5674 5678 5687 5693 5701 5707 5712 5717 5721 5724 5727 5729 5730 5731 5731 5731 5731 5731 5731 5731 5730 5729 5728 5726 5724 5722 5720 5718 5715
5648 5649 5651 5654 5656 5658 5661 5664 5667 5669 5672 5679 5685 5692 5697 5703 5708 5713 5717 5720 5723 5725 5726 5727 5727 5728 5728 5727 5727 5726 5726 5724 5723 5721 5719 5717 5714 5712
5642 5643 5644 5648 5649 5652 5654 5657 5660 5663 5666 5670 5676 5682 5688 5694 5699 5703 5709 5714 5717 5720 5721 5722 5723 5723 5724 5723 5723 5722 5722 5720 5719 5717 5715 5713 5710 5708
5637 5637 5638 5640 5642 5644 5647 5649 5652 5657 5660 5663 5667 5672 5678 5684 5688 5694 5699 5705 5709 5713 5715 5716 5717 5718 5719 5719 5719 5719 5718 5717 5715 5713 5711 5709 5706 5704
5635 5635 5635 5636 5637 5639 5641 5643 5646 5648 5651 5654 5658 5662 5668 5674 5678 5683 5688 5694 5700 5704 5707 5710 5712 5713 5714 5715 5715 5715 5714 5712 5710 5708 5706 5704 5702 5700
5634 5634 5633 5635 5637 5637 5638 5639 5640 5641 5643 5646 5649 5653 5658 5663 5669 5675 5678 5684 5690 5695 5698 5702 5704 5705 5707 5709 5710 5710 5709 5708 5706 5704 5702 5700 5697 5695
5632 5633 5633 5634 5635 5636 5637 5638 5637 5636 5637 5640 5643 5646 5651 5656 5661 5666 5670 5674 5679 5688 5689 5693 5697 5699 5703 5704 5706 5705 5704 5703 5702 5700 5698 5695 5693 5690
5633 5632 5633 5634 5633 5633 5634 5635 5635 5635 5637 5637 5639 5642 5646 5651 5655 5658 5662 5666 5672 5679 5680 5684 5689 5693 5697 5699 5700 5700 5700 5699 5698 5696 5694 5691 5688 5685
5634 5633 5632 5631 5632 5632 5632 5631 5631 5631 5633 5635 5637 5640 5643 5647 5650 5654 5657 5660 5666 5671 5674 5675 5681 5685 5690 5692 5694 5695 5695 5694 5693 5691 5689 5686 5683 5679
5636 5635 5633 5632 5632 5632 5630 5628 5628 5629 5631 5633 5635 5637 5641 5644 5646 5647 5650 5652 5657 5662 5666 5669 5674 5676 5680 5685 5688 5689 5690 5689 5688 5686 5683 5681 5677 5673
5637 5636 5635 5633 5633 5632 5629 5626 5625 5626 5628 5630 5631 5634 5637 5640 5642 5644 5645 5647 5651 5654 5660 5662 5665 5666 5669 5676 5680 5682 5682 5682 5682 5680 5678 5675 5671 5666
5636 5635 5635 5634 5633 5632 5630 5627 5627 5627 5626 5627 5629 5631 5633 5635 5637 5639 5642 5644 5646 5649 5653 5655 5657 5659 5661 5665 5670 5674 5675 5675 5674 5673 5671 5669 5666 5662
5637 5636 5635 5635 5633 5632 5631 5630 5629 5628 5626 5626 5626 5628 5629 5631 5633 5635 5638 5640 5642 5645 5647 5649 5651 5652 5654 5656 5659 5663 5666 5668 5668 5666 5664 5661 5658 5656
5638 5637 5635 5634 5633 5632 5632 5631 5629 5627 5626 5625 5625 5626 5627 5628 5630 5631 5633 5635 5637 5640 5642 5644 5646 5647 5648 5651 5652 5655 5657 5659 5660 5660 5657 5655 5653 5649
5637 5635 5634 5633 5632 5631 5631 5630 5629 5627 5625 5625 5625 5625 5626 5626 5627 5628 5629 5630 5632 5635 5638 5639 5641 5642 5643 5645 5646 5648 5651 5652 5653 5652 5651 5648 5646 5644
5634 5631 5630 5629 5628 5628 5628 5628 5627 5626 5625 5624 5624 5624 5624 5624 5624 5625 5625 5626 5628 5631 5632 5633 5634 5636 5638 5639 5639 5642 5643 5644 5646 5646 5644 5642 5640 5638
5630 5626 5625 5624 5623 5624 5624 5625 5625 5625 5624 5624 5623 5622 5622 5621 5621 5622 5622 5623 5624 5626 5627 5627 5627 5627 5628 5631 5634 5636 5636 5637 5638 5638 5638 5636 5634 5632
5624 5622 5620 5620 5620 5620 5621 5621 5622 5623 5623 5622 5621 5620 5619 5619 5618 5618 5618 5619 5620 5621 5623 5623 5623 5623 5624 5626 5628 5630 5631 5631 5631 5630 5631 5631 5631 5629
5617 5615 5615 5615 5616 5616 5617 5618 5619 5620 5619 5619 5619 5618 5618 5617 5616 5615 5615 5615 5616 5617 5618 5618 5619 5619 5621 5622 5622 5623 5624 5625 5625 5625 5623 5622 5621 5620
5609 5609 5609 5609 5610 5611 5612 5614 5614 5615 5615 5615 5615 5615 5615 5614 5614 5613 5612 5612 5611 5612 5614 5615 5616 5616 5615 5615 5615 5616 5616 5618 5620 5620 5617 5614 5612 5611
5597 5597 5598 5599 5600 5601 5603 5605 5607 5607 5608 5608 5609 5610 5610 5610 5610 5610 5609 5609 5609 5609 5610 5611 5610 5610 5609 5611 5612 5611 5610 5609 5610 5611 5611 5613 5612 5610
5584 5584 5585 5585 5586 5588 5589 5591 5592 5592 5592 5594 5597 5599 5602 5604 5605 5606 5606 5606 5606 5606 5606 5605 5605 5604 5605 5606 5606 5605 5605 5604 5603 5602 5602 5603 5605 5607